{"data":{"norad_id":58727,"epoch":"2026-05-25T04:12:29.285280Z","epoch_age_seconds":50007,"freshness":"FRESH","line1":"1 58727U 23185R   26145.17533895  .00007395  00000+0  33755-3 0  9996","line2":"2 58727  97.5397 219.0107 0013575  39.6116 320.6108 15.20821316131293","mean_motion":15.20821316,"eccentricity":0.0013575,"inclination_deg":97.5397,"raan_deg":219.0107,"arg_perigee_deg":39.6116,"mean_anomaly_deg":320.6108,"bstar":0.00033755,"rev_number":13129,"period_min":94.685679694931,"perigee_km":494.02030510822,"apogee_km":512.7035747301,"semimajor_km":6881.4989399192,"source":"CELESTRAK","updated_at":"2026-05-25T13:38:00.926454Z"}}